星链-31728 (STARLINK-31728 )

导读

STARLINK-31728是美国太空探索技术公司 SpaceX 星链互联网卫星星座的一员,于2024年4月13日发射入轨,属于星链项目批量部署的卫星之一。星链旨在为全球提供低延迟高速互联网,尤其覆盖偏远地区,该卫星为星座扩容,提升全球网络覆盖能力。

基本信息
目录编号:
59496
目录名称:
STARLINK-31728
国际标识:
2024-071N
轨道中心:
EARTH
卫星名称:
星链-31728
卫星全名:
星链-31728 (STARLINK-31728 )
卫星状态:
在轨 (已飞行881 天)
发射日期:
2024-04-13 UTC
国别 :
美国 (US)
星等 :
--
该卫星已列入 空间交会检测服务 Space Conjunction Data Service (SCDS) ,当前飞行风险评估等级: 无高风险
轨道信息
数据来源 国际轨道数据
星历时间: 2026-09-11T15:22:07+0800
9小时前
查看轨道信息
半长轴: 6861.146km
偏心率: 0.0001886
轨道倾角: 43.006°
近地点辐角 279.627°
升交点赤经 11.451°
平近点角 80.436°
近地点: 481.714km
远地点: 484.304km
周期: 94.266分钟
每日圈数: 15.275935
详细信息
固有亮度:
5
最大亮度:
1.5
卫星平台:
Starlink v2.0 mini
覆盖范围:
全球
运营商:
太空探索技术公司
运营商所在国:
美国
制造商(研发单位):
太空探索技术公司
制造商所在国:
美国
使用方式:
暂无
卫星简介
星链(Starlink)计划是由太空探索技术公司(SpaceX)提出的一个巨型低轨卫星互联网星座项目,计划在2019年至2024年间在太空搭建由约1.2万颗卫星组成的“星链”网络,其中1584颗将部署在地球上空550千米处的近地轨道,并从2020年开始工作。该卫星仍在工作。
2D轨道图
3D轨道图
轨道高度分析图
轨道倾角分析图
轨道综合分析图
查看轨道综合分析图
交会数据列表
事件ID 空间交会对象 最接近时刻(TCA) 交会距离 交会风险概率(CRP) 交会风险指数(CRI) 操作
CDM_260912-191405-949606-385721
2026-09-12T
19:14:38+0000
1.173 km
极远距离
9.984582E-6 低风险 0.55
CDM_260912-204805-949606-385721
2026-09-12T
20:48:47+0000
1.803 km
极远距离
2.521968E-6 低风险 0.43
CDM_260911-053205-949606-660521
2026-09-11T
05:32:14+0000
1.769 km
极远距离
2.344987E-6 低风险 0.42
CDM_260913-083405-949606-385721
2026-09-13T
08:34:56+0000
1.995 km
极远距离
1.936953E-6 低风险 0.41
CDM_260913-070005-949606-385721
2026-09-13T
07:00:47+0000
2.159 km
极远距离
1.611465E-6 低风险 0.39
CDM_260911-141005-949606-660521
2026-09-11T
14:10:05+0000
2.523 km
极远距离
1.064582E-6 低风险 0.36
与全量物体交会距离演化趋势
与全量物体交会风险概率演化趋势